TimeCDT,TemperatureF,Dew PointF,Humidity,Sea Level PressureIn,VisibilityMPH,Wind Direction,Wind SpeedMPH,Gust SpeedMPH,PrecipitationIn,Events,Conditions,WindDirDegrees,DateUTC
12:53 AM,61.0,55.0,81,29.96,10.0,Calm,Calm,-,N/A,,Clear,0,2013-05-01 05:53:00
1:53 AM,57.0,53.1,87,29.96,10.0,Calm,Calm,-,N/A,,Clear,0,2013-05-01 06:53:00
2:53 AM,57.0,53.1,87,29.96,10.0,Calm,Calm,-,N/A,,Clear,0,2013-05-01 07:53:00
3:53 AM,55.0,53.1,93,29.98,10.0,Calm,Calm,-,N/A,,Clear,0,2013-05-01 08:53:00
4:53 AM,55.9,53.1,90,30.00,10.0,Calm,Calm,-,N/A,,Clear,0,2013-05-01 09:53:00
5:53 AM,53.1,51.1,93,30.02,7.0,Calm,Calm,-,N/A,,Clear,0,2013-05-01 10:53:00
7:53 AM,63.0,55.9,78,30.05,10.0,SSE,4.6,-,N/A,,Clear,150,2013-05-01 12:53:00
8:53 AM,70.0,57.9,65,30.05,10.0,SE,3.5,-,N/A,,Clear,130,2013-05-01 13:53:00
9:53 AM,73.9,57.9,57,30.06,10.0,South,3.5,-,N/A,,Clear,180,2013-05-01 14:53:00
11:53 AM,80.1,53.1,39,30.06,10.0,Variable,3.5,-,N/A,,Scattered Clouds,0,2013-05-01 16:53:00
12:53 PM,80.1,55.9,43,30.06,10.0,SSE,8.1,-,N/A,,Partly Cloudy,160,2013-05-01 17:53:00
1:53 PM,80.1,55.9,43,30.06,10.0,SSE,8.1,-,N/A,,Mostly Cloudy,150,2013-05-01 18:53:00
2:53 PM,82.0,57.0,42,30.05,10.0,SE,10.4,-,N/A,,Clear,140,2013-05-01 19:53:00
3:53 PM,82.0,57.9,44,30.04,10.0,SSE,8.1,-,N/A,,Partly Cloudy,150,2013-05-01 20:53:00
4:53 PM,81.0,60.1,49,30.04,10.0,SE,12.7,-,N/A,,Scattered Clouds,140,2013-05-01 21:53:00
5:53 PM,81.0,61.0,50,30.04,10.0,SE,10.4,-,N/A,,Clear,140,2013-05-01 22:53:00
6:53 PM,78.1,60.1,54,30.04,10.0,SE,8.1,-,N/A,,Scattered Clouds,130,2013-05-01 23:53:00
7:53 PM,73.9,59.0,59,30.05,10.0,SE,5.8,-,N/A,,Mostly Cloudy,140,2013-05-02 00:53:00
8:53 PM,73.0,57.9,59,30.06,10.0,SE,4.6,-,N/A,,Clear,140,2013-05-02 01:53:00
9:53 PM,70.0,57.9,65,30.07,10.0,SE,3.5,-,N/A,,Clear,140,2013-05-02 02:53:00
10:53 PM,64.9,59.0,81,30.07,10.0,Calm,Calm,-,N/A,,Clear,0,2013-05-02 03:53:00
11:53 PM,63.0,57.9,84,30.08,10.0,Calm,Calm,-,N/A,,Clear,0,2013-05-02 04:53:00